Time,TemperatureF,DewpointF,PressureIn,WindDirection,WindDirectionDegrees,WindSpeedMPH,WindSpeedGustMPH,Humidity,HourlyPrecipIn,Conditions,Clouds,dailyrainin,SoftwareType,DateUTC
2014-07-24 00:00:00,67.0,40.4,30.18,East,90,1.1,2.0,38,0.00,,,0.00,WUHU216HW,2014-07-24 07:00:00,
2014-07-24 00:05:00,67.0,40.4,30.18,ENE,68,2.0,2.2,38,0.00,,,0.00,WUHU216HW,2014-07-24 07:05:00,
2014-07-24 00:09:00,66.8,40.2,30.19,ESE,113,0.7,2.2,38,0.00,,,0.00,WUHU216HW,2014-07-24 07:09:00,
2014-07-24 00:14:00,66.6,40.2,30.19,ESE,113,0.4,1.8,38,0.00,,,0.00,WUHU216HW,2014-07-24 07:14:00,
2014-07-24 00:19:00,66.6,40.2,30.19,West,270,0.0,1.8,38,0.00,,,0.00,WUHU216HW,2014-07-24 07:19:00,
2014-07-24 00:24:00,66.2,40.5,30.18,NNE,23,0.0,1.6,39,0.00,,,0.00,WUHU216HW,2014-07-24 07:24:00,
2014-07-24 00:29:00,66.1,40.3,30.18,ESE,113,1.1,1.8,39,0.00,,,0.00,WUHU216HW,2014-07-24 07:29:00,
2014-07-24 00:34:00,65.9,40.1,30.19,ESE,113,0.0,1.8,39,0.00,,,0.00,WUHU216HW,2014-07-24 07:34:00,
2014-07-24 00:39:00,65.7,40.8,30.19,NE,45,0.0,0.7,40,0.00,,,0.00,WUHU216HW,2014-07-24 07:39:00,
2014-07-24 00:44:00,65.3,40.4,30.19,WSW,248,0.7,1.8,40,0.00,,,0.00,WUHU216HW,2014-07-24 07:44:00,
2014-07-24 00:49:00,65.3,40.4,30.19,ESE,113,0.0,1.8,40,0.00,,,0.00,WUHU216HW,2014-07-24 07:49:00,
2014-07-24 00:54:00,65.2,40.2,30.19,ESE,113,1.3,1.6,40,0.00,,,0.00,WUHU216HW,2014-07-24 07:54:00,
2014-07-24 00:59:00,65.0,40.1,30.18,West,270,0.0,1.3,40,0.00,,,0.00,WUHU216HW,2014-07-24 07:59:00,
2014-07-24 01:04:00,64.8,40.0,30.19,ESE,113,0.9,1.6,40,0.00,,,0.00,WUHU216HW,2014-07-24 08:04:00,
2014-07-24 01:09:00,64.6,39.8,30.19,SE,135,1.3,1.6,40,0.00,,,0.00,WUHU216HW,2014-07-24 08:09:00,
2014-07-24 01:14:00,64.3,40.1,30.18,SE,135,0.0,1.6,41,0.00,,,0.00,WUHU216HW,2014-07-24 08:14:00,
2014-07-24 01:19:00,63.7,40.2,30.18,SE,135,0.0,1.3,42,0.00,,,0.00,WUHU216HW,2014-07-24 08:19:00,
2014-07-24 01:24:00,63.5,40.0,30.18,SE,135,0.4,1.1,42,0.00,,,0.00,WUHU216HW,2014-07-24 08:24:00,
2014-07-24 01:29:00,63.5,40.0,30.18,ESE,113,0.4,1.1,42,0.00,,,0.00,WUHU216HW,2014-07-24 08:29:00,
2014-07-24 01:34:00,63.4,40.3,30.18,North,0,1.8,1.8,43,0.00,,,0.00,WUHU216HW,2014-07-24 08:34:00,
2014-07-24 01:39:00,63.0,40.1,30.18,SE,135,1.8,1.8,43,0.00,,,0.00,WUHU216HW,2014-07-24 08:39:00,
2014-07-24 01:44:00,63.0,40.1,30.18,ESE,113,1.3,1.8,43,0.00,,,0.00,WUHU216HW,2014-07-24 08:44:00,
2014-07-24 01:49:00,63.0,39.4,30.18,ESE,113,0.7,1.3,42,0.00,,,0.00,WUHU216HW,2014-07-24 08:49:00,
2014-07-24 01:54:00,63.0,39.4,30.18,WSW,248,0.0,1.8,42,0.00,,,0.00,WUHU216HW,2014-07-24 08:54:00,
2014-07-24 01:59:00,62.8,39.3,30.19,NNW,338,0.4,1.8,42,0.00,,,0.00,WUHU216HW,2014-07-24 08:59:00,
2014-07-24 02:04:00,62.6,39.7,30.18,East,90,0.9,1.3,43,0.00,,,0.00,WUHU216HW,2014-07-24 09:04:00,
2014-07-24 02:09:00,62.3,40.0,30.19,NNE,23,2.2,2.2,44,0.00,,,0.00,WUHU216HW,2014-07-24 09:09:00,
2014-07-24 02:14:00,61.9,40.2,30.18,WSW,248,1.1,2.2,45,0.00,,,0.00,WUHU216HW,2014-07-24 09:14:00,
2014-07-24 02:19:00,61.9,40.2,30.18,West,270,0.4,2.2,45,0.00,,,0.00,WUHU216HW,2014-07-24 09:19:00,
2014-07-24 02:24:00,61.9,39.6,30.18,WSW,248,0.0,2.2,44,0.00,,,0.00,WUHU216HW,2014-07-24 09:24:00,
2014-07-24 02:29:00,62.1,39.3,30.18,SW,225,0.9,2.0,43,0.00,,,0.00,WUHU216HW,2014-07-24 09:29:00,
2014-07-24 02:34:00,61.9,40.2,30.18,WSW,248,0.0,2.0,45,0.00,,,0.00,WUHU216HW,2014-07-24 09:34:00,
2014-07-24 02:39:00,61.7,38.9,30.18,WSW,248,2.5,2.5,43,0.00,,,0.00,WUHU216HW,2014-07-24 09:39:00,
2014-07-24 02:44:00,61.6,39.3,30.18,WSW,248,0.2,2.5,44,0.00,,,0.00,WUHU216HW,2014-07-24 09:44:00,
2014-07-24 02:49:00,61.6,38.7,30.18,WSW,248,0.0,2.2,43,0.00,,,0.00,WUHU216HW,2014-07-24 09:49:00,
2014-07-24 02:54:00,61.4,39.2,30.18,NW,315,0.0,1.3,44,0.00,,,0.00,WUHU216HW,2014-07-24 09:54:00,
2014-07-24 02:59:00,61.2,39.0,30.18,West,270,0.7,2.0,44,0.00,,,0.00,WUHU216HW,2014-07-24 09:59:00,
2014-07-24 03:04:00,60.8,38.7,30.19,WSW,248,1.3,2.0,44,0.00,,,0.00,WUHU216HW,2014-07-24 10:04:00,
2014-07-24 03:09:00,60.7,38.5,30.19,West,270,0.0,1.3,44,0.00,,,0.00,WUHU216HW,2014-07-24 10:09:00,
2014-07-24 03:14:00,60.5,38.9,30.19,West,270,0.7,1.1,45,0.00,,,0.00,WUHU216HW,2014-07-24 10:14:00,
2014-07-24 03:19:00,60.3,38.8,30.19,West,270,0.4,0.7,45,0.00,,,0.00,WUHU216HW,2014-07-24 10:19:00,
2014-07-24 03:24:00,60.1,38.6,30.19,West,270,0.0,0.7,45,0.00,,,0.00,WUHU216HW,2014-07-24 10:24:00,
2014-07-24 03:29:00,60.1,38.6,30.19,West,270,0.2,0.4,45,0.00,,,0.00,WUHU216HW,2014-07-24 10:29:00,
2014-07-24 03:34:00,59.9,38.4,30.19,West,270,0.0,0.4,45,0.00,,,0.00,WUHU216HW,2014-07-24 10:34:00,
2014-07-24 03:39:00,59.8,38.3,30.19,SW,225,0.0,0.9,45,0.00,,,0.00,WUHU216HW,2014-07-24 10:39:00,
2014-07-24 03:44:00,59.4,38.5,30.19,SW,225,0.7,0.9,46,0.00,,,0.00,WUHU216HW,2014-07-24 10:44:00,
2014-07-24 03:49:00,59.0,38.2,30.19,SSW,203,0.0,1.1,46,0.00,,,0.00,WUHU216HW,2014-07-24 10:49:00,
2014-07-24 03:54:00,58.7,38.4,30.19,SW,225,1.1,1.1,47,0.00,,,0.00,WUHU216HW,2014-07-24 10:54:00,
2014-07-24 03:59:00,58.7,38.4,30.19,SW,225,0.4,1.1,47,0.00,,,0.00,WUHU216HW,2014-07-24 10:59:00,
2014-07-24 04:04:00,58.5,38.3,30.19,WSW,248,0.0,1.1,47,0.00,,,0.00,WUHU216HW,2014-07-24 11:04:00,
2014-07-24 04:09:00,58.0,38.3,30.19,SW,225,0.0,0.9,48,0.00,,,0.00,WUHU216HW,2014-07-24 11:09:00,
2014-07-24 04:14:00,58.0,38.3,30.19,SE,135,0.0,0.4,48,0.00,,,0.00,WUHU216HW,2014-07-24 11:14:00,
2014-07-24 04:19:00,57.8,38.3,30.19,SE,135,0.0,1.1,48,0.00,,,0.00,WUHU216HW,2014-07-24 11:19:00,
2014-07-24 04:24:00,57.4,39.1,30.19,SE,135,0.0,1.1,50,0.00,,,0.00,WUHU216HW,2014-07-24 11:24:00,
2014-07-24 04:29:00,57.1,38.7,30.19,SE,135,0.0,0.4,50,0.00,,,0.00,WUHU216HW,2014-07-24 11:29:00,
2014-07-24 04:34:00,56.5,38.6,30.19,West,270,0.0,0.4,51,0.00,,,0.00,WUHU216HW,2014-07-24 11:34:00,
2014-07-24 04:39:00,56.3,38.4,30.19,West,270,0.0,0.0,51,0.00,,,0.00,WUHU216HW,2014-07-24 11:39:00,
2014-07-24 04:44:00,56.2,39.3,30.19,West,270,0.0,0.0,53,0.00,,,0.00,WUHU216HW,2014-07-24 11:44:00,
2014-07-24 04:49:00,55.8,37.9,30.19,SW,225,0.0,0.7,51,0.00,,,0.00,WUHU216HW,2014-07-24 11:49:00,
2014-07-24 04:54:00,55.8,38.3,30.19,SW,225,1.1,1.1,52,0.00,,,0.00,WUHU216HW,2014-07-24 11:54:00,
2014-07-24 04:59:00,55.8,37.9,30.19,WSW,248,0.7,1.1,51,0.00,,,0.00,WUHU216HW,2014-07-24 11:59:00,
2014-07-24 05:04:00,55.1,37.7,30.19,SW,225,0.0,0.9,52,0.00,,,0.00,WUHU216HW,2014-07-24 12:04:00,
2014-07-24 05:09:00,55.3,37.9,30.19,SW,225,0.0,0.9,52,0.00,,,0.00,WUHU216HW,2014-07-24 12:09:00,
2014-07-24 05:14:00,55.1,38.2,30.19,SW,225,0.0,0.0,53,0.00,,,0.00,WUHU216HW,2014-07-24 12:14:00,
2014-07-24 05:19:00,55.1,37.7,30.20,SW,225,0.4,0.4,52,0.00,,,0.00,WUHU216HW,2014-07-24 12:19:00,
2014-07-24 05:24:00,55.1,38.6,30.20,WSW,248,0.4,1.1,54,0.00,,,0.00,WUHU216HW,2014-07-24 12:24:00,
2014-07-24 05:29:00,54.7,37.8,30.20,WSW,248,0.0,1.1,53,0.00,,,0.00,WUHU216HW,2014-07-24 12:29:00,
2014-07-24 05:34:00,54.5,37.7,30.20,SW,225,0.2,0.2,53,0.00,,,0.00,WUHU216HW,2014-07-24 12:34:00,
2014-07-24 05:39:00,54.4,38.0,30.20,SW,225,0.0,1.1,54,0.00,,,0.00,WUHU216HW,2014-07-24 12:39:00,
2014-07-24 05:44:00,54.4,37.5,30.20,SW,225,0.0,1.1,53,0.00,,,0.00,WUHU216HW,2014-07-24 12:44:00,
2014-07-24 05:49:00,54.4,37.5,30.20,WSW,248,0.0,0.9,53,0.00,,,0.00,WUHU216HW,2014-07-24 12:49:00,
2014-07-24 05:54:00,54.4,38.0,30.20,SW,225,0.0,0.9,54,0.00,,,0.00,WUHU216HW,2014-07-24 12:54:00,
2014-07-24 05:59:00,54.5,37.7,30.20,SW,225,0.0,0.7,53,0.00,,,0.00,WUHU216HW,2014-07-24 12:59:00,
2014-07-24 06:04:00,54.7,37.4,30.21,SW,225,0.4,1.1,52,0.00,,,0.00,WUHU216HW,2014-07-24 13:04:00,
2014-07-24 06:09:00,54.7,37.4,30.21,WSW,248,0.0,1.1,52,0.00,,,0.00,WUHU216HW,2014-07-24 13:09:00,
2014-07-24 06:14:00,54.9,37.5,30.21,WSW,248,0.0,0.4,52,0.00,,,0.00,WUHU216HW,2014-07-24 13:14:00,
2014-07-24 06:19:00,55.1,37.7,30.21,WSW,248,0.0,0.2,52,0.00,,,0.00,WUHU216HW,2014-07-24 13:19:00,
2014-07-24 06:24:00,55.1,37.7,30.21,WSW,248,0.0,0.2,52,0.00,,,0.00,WUHU216HW,2014-07-24 13:24:00,